TimeCDT,TemperatureF,Dew PointF,Humidity,Sea Level PressureIn,VisibilityMPH,Wind Direction,Wind SpeedMPH,Gust SpeedMPH,PrecipitationIn,Events,Conditions,WindDirDegrees,DateUTC
12:15 AM,38.7,20.3,48,30.12,10.0,Calm,Calm,-,N/A,,Clear,0,2013-04-05 05:15:00
12:35 AM,36.1,21.0,54,30.12,10.0,Calm,Calm,-,N/A,,Clear,0,2013-04-05 05:35:00
12:55 AM,34.5,21.2,58,30.11,10.0,Calm,Calm,-,N/A,,Clear,0,2013-04-05 05:55:00
1:15 AM,37.4,20.1,50,30.10,10.0,Calm,Calm,-,N/A,,Clear,0,2013-04-05 06:15:00
1:35 AM,33.1,22.3,65,30.11,10.0,Calm,Calm,-,N/A,,Clear,0,2013-04-05 06:35:00
1:55 AM,35.6,21.7,57,30.11,10.0,East,3.5,-,N/A,,Clear,90,2013-04-05 06:55:00
2:15 AM,37.4,21.2,52,30.11,10.0,East,5.8,-,N/A,,Clear,80,2013-04-05 07:15:00
2:35 AM,37.6,24.1,58,30.11,10.0,East,6.9,-,N/A,,Clear,90,2013-04-05 07:35:00
2:55 AM,36.7,25.7,64,30.11,10.0,ESE,3.5,-,N/A,,Clear,110,2013-04-05 07:55:00
3:15 AM,35.6,26.1,68,30.11,10.0,East,5.8,-,N/A,,Clear,90,2013-04-05 08:15:00
3:35 AM,36.0,27.3,71,30.11,10.0,East,4.6,-,N/A,,Clear,100,2013-04-05 08:35:00
3:55 AM,35.4,27.5,73,30.11,10.0,East,6.9,-,N/A,,Clear,90,2013-04-05 08:55:00
4:15 AM,34.9,27.5,74,30.11,10.0,East,8.1,-,N/A,,Clear,90,2013-04-05 09:15:00
4:35 AM,34.0,27.5,77,30.11,10.0,ESE,5.8,-,N/A,,Scattered Clouds,110,2013-04-05 09:35:00
4:55 AM,34.0,27.5,77,30.12,10.0,ESE,5.8,-,N/A,,Scattered Clouds,120,2013-04-05 09:55:00
5:15 AM,33.3,27.5,79,30.11,10.0,East,5.8,-,N/A,,Scattered Clouds,100,2013-04-05 10:15:00
5:35 AM,33.1,27.5,80,30.11,10.0,ESE,8.1,-,N/A,,Mostly Cloudy,110,2013-04-05 10:35:00
5:55 AM,32.9,27.5,81,30.10,10.0,East,8.1,-,N/A,,Scattered Clouds,100,2013-04-05 10:55:00
6:15 AM,33.1,28.0,82,30.11,10.0,ESE,8.1,-,N/A,,Scattered Clouds,110,2013-04-05 11:15:00
6:35 AM,33.3,28.2,82,30.11,10.0,SE,6.9,-,N/A,,Scattered Clouds,130,2013-04-05 11:35:00
6:55 AM,33.8,28.2,80,30.11,10.0,ESE,10.4,-,N/A,,Scattered Clouds,120,2013-04-05 11:55:00
7:15 AM,33.8,28.4,81,30.10,10.0,SE,10.4,-,N/A,,Scattered Clouds,130,2013-04-05 12:15:00
7:35 AM,33.6,28.2,81,30.09,10.0,SE,10.4,-,N/A,,Scattered Clouds,130,2013-04-05 12:35:00
7:55 AM,34.3,28.9,81,30.08,10.0,SE,11.5,-,N/A,,Scattered Clouds,130,2013-04-05 12:55:00
8:15 AM,35.2,29.3,79,30.08,10.0,SE,10.4,-,N/A,,Mostly Cloudy,130,2013-04-05 13:15:00
8:35 AM,36.5,30.0,77,30.08,10.0,SE,11.5,17.3,N/A,,Mostly Cloudy,130,2013-04-05 13:35:00
8:55 AM,37.8,30.7,76,30.06,10.0,SE,11.5,-,N/A,,Mostly Cloudy,140,2013-04-05 13:55:00
9:15 AM,39.2,30.9,72,30.06,10.0,SE,15.0,19.6,N/A,,Scattered Clouds,130,2013-04-05 14:15:00
9:35 AM,40.1,31.1,70,30.06,10.0,SE,17.3,23.0,N/A,,Scattered Clouds,140,2013-04-05 14:35:00
9:55 AM,41.0,31.5,69,30.05,10.0,SE,13.8,-,N/A,,Clear,140,2013-04-05 14:55:00
10:15 AM,43.2,32.0,65,30.03,10.0,SE,18.4,-,N/A,,Clear,140,2013-04-05 15:15:00
10:35 AM,45.5,32.2,60,30.02,10.0,SSE,18.4,25.3,N/A,,Clear,150,2013-04-05 15:35:00
10:55 AM,47.3,32.4,56,30.02,10.0,SSE,20.7,25.3,N/A,,Clear,150,2013-04-05 15:55:00
11:15 AM,49.6,32.9,53,30.00,10.0,SSE,18.4,23.0,N/A,,Clear,150,2013-04-05 16:15:00
11:35 AM,52.2,33.4,49,29.99,10.0,SSE,17.3,23.0,N/A,,Clear,150,2013-04-05 16:35:00
11:55 AM,53.8,33.6,46,29.97,10.0,SSE,20.7,25.3,N/A,,Clear,150,2013-04-05 16:55:00
12:15 PM,56.3,33.6,42,29.96,10.0,SSE,20.7,26.5,N/A,,Clear,150,2013-04-05 17:15:00
12:35 PM,57.9,33.6,40,29.94,10.0,SSE,21.9,31.1,N/A,,Clear,160,2013-04-05 17:35:00
12:55 PM,61.5,32.9,34,29.92,10.0,South,26.5,32.2,N/A,,Clear,170,2013-04-05 17:55:00
1:15 PM,62.1,31.6,32,29.90,10.0,South,24.2,32.2,N/A,,Clear,170,2013-04-05 18:15:00
1:35 PM,63.3,31.3,30,29.87,10.0,South,24.2,35.7,N/A,,Clear,170,2013-04-05 18:35:00
1:55 PM,64.0,30.9,29,29.86,10.0,SSE,28.8,33.4,N/A,,Clear,160,2013-04-05 18:55:00
2:15 PM,64.9,30.0,27,29.84,10.0,South,26.5,32.2,N/A,,Clear,170,2013-04-05 19:15:00
2:35 PM,66.2,27.5,23,29.82,10.0,South,23.0,34.5,N/A,,Clear,170,2013-04-05 19:35:00
2:55 PM,66.9,25.9,21,29.81,10.0,South,26.5,35.7,N/A,,Clear,170,2013-04-05 19:55:00
3:15 PM,68.2,26.6,21,29.79,10.0,South,23.0,34.5,N/A,,Clear,180,2013-04-05 20:15:00
3:35 PM,68.7,23.0,18,29.77,10.0,South,21.9,34.5,N/A,,Clear,170,2013-04-05 20:35:00
3:55 PM,69.4,25.0,19,29.75,10.0,South,28.8,40.3,N/A,,Clear,170,2013-04-05 20:55:00
4:15 PM,70.0,26.4,20,29.74,10.0,South,25.3,36.8,N/A,,Clear,170,2013-04-05 21:15:00
4:35 PM,70.3,26.8,20,29.74,10.0,South,25.3,35.7,N/A,,Clear,190,2013-04-05 21:35:00
4:55 PM,70.2,27.5,20,29.74,10.0,South,25.3,36.8,N/A,,Clear,180,2013-04-05 21:55:00
5:15 PM,70.0,28.9,22,29.73,10.0,South,19.6,28.8,N/A,,Clear,170,2013-04-05 22:15:00
5:35 PM,69.8,28.8,22,29.72,10.0,South,21.9,32.2,N/A,,Clear,180,2013-04-05 22:35:00
5:55 PM,68.9,29.1,23,29.71,10.0,South,16.1,29.9,N/A,,Clear,180,2013-04-05 22:55:00
6:15 PM,68.4,30.0,24,29.70,10.0,SSE,19.6,26.5,N/A,,Clear,160,2013-04-05 23:15:00
6:35 PM,68.2,31.1,25,29.69,10.0,South,20.7,27.6,N/A,,Clear,170,2013-04-05 23:35:00
6:55 PM,69.3,31.3,24,29.69,10.0,South,24.2,32.2,N/A,,Clear,170,2013-04-05 23:55:00
7:15 PM,68.0,31.1,25,29.68,10.0,South,20.7,34.5,N/A,,Clear,180,2013-04-06 00:15:00
7:35 PM,66.4,31.5,27,29.67,10.0,South,20.7,29.9,N/A,,Clear,180,2013-04-06 00:35:00
7:55 PM,65.1,32.0,29,29.67,10.0,South,20.7,28.8,N/A,,Clear,180,2013-04-06 00:55:00
8:15 PM,63.3,33.3,33,29.67,10.0,South,20.7,25.3,N/A,,Clear,170,2013-04-06 01:15:00
8:35 PM,62.2,34.5,36,29.67,10.0,South,15.0,23.0,N/A,,Clear,170,2013-04-06 01:35:00
8:55 PM,61.2,35.4,38,29.67,10.0,South,15.0,19.6,N/A,,Clear,170,2013-04-06 01:55:00
9:15 PM,60.6,35.8,40,29.67,10.0,South,15.0,-,N/A,,Clear,170,2013-04-06 02:15:00
9:55 PM,59.5,36.9,43,29.67,10.0,South,12.7,-,N/A,,Clear,170,2013-04-06 02:55:00
10:15 PM,59.4,37.4,44,29.67,10.0,South,11.5,-,N/A,,Clear,170,2013-04-06 03:15:00
10:35 PM,59.5,38.3,45,29.67,10.0,South,11.5,-,N/A,,Clear,170,2013-04-06 03:35:00
10:55 PM,59.0,39.2,48,29.66,10.0,South,12.7,17.3,N/A,,Clear,170,2013-04-06 03:55:00
11:15 PM,58.5,39.4,49,29.66,10.0,South,11.5,17.3,N/A,,Clear,170,2013-04-06 04:15:00
11:35 PM,57.7,39.7,51,29.64,10.0,South,10.4,-,N/A,,Clear,170,2013-04-06 04:35:00
11:55 PM,57.7,40.1,52,29.64,10.0,South,10.4,-,N/A,,Clear,170,2013-04-06 04:55:00